Flag for Bahamas Weather past 2 weeks in Nassau, Bahamas

Now
77 °F

Sprinkles. Passing clouds.


Feels Like: 78 °F
Forecast: 80 / 87 °F
Wind: No wind

Location: Nassau Airport

Current Time: Sep 2, 2014 at 10:19:57 PM

Latest Report: Sep 2, 2014 at 10:00 PM


Visibility: N/A

Pressure: 30.03 "Hg

Humidity: 83%

Dew point: 72 °F

Location of NassauLocation

Historic Weather in Nassau — Graph

°F

Nassau temperature yesterday

Maximum temperature yesterday: 88 °F (at 2:00 PM)
Minimum temperature yesterday: 77 °F (at 10:00 PM)
Average temperature yesterday: 82 °F

Past Weeks' High & Low Weather Summary

 TemperatureHumidityPressure
High91 °F (Aug 21, 2:00 PM)94% (Aug 18, 11:00 PM)30.14 "Hg (Aug 18, 11:00 PM)
Low75 °F (Aug 19, 6:00 AM)55% (Aug 19, 1:00 PM)29.69 "Hg (Aug 25, 4:00 PM)
Average84 °F74%29.98 "Hg
* Reported Aug 18 8:00 PM — Sep 2 8:00 PM, Nassau, Weather by CustomWeather, © 2014

Note: Actual official high and low records may vary slightly from our data, if they occured in-between our weather recording intervals... More about our weather records

Advertising

Nassau weather history for previous 24 hours

 ConditionsComfort  
Time TempWeatherWind HumidityBarometerVisibility
8:00 PM
Sep 2
82 °FThunderstorms. Broken clouds.6 mph74%30.02 "HgN/A
7:00 PM84 °FScattered showers. Broken clouds.5 mph55%30.00 "HgN/A
6:00 PM86 °FScattered showers. Broken clouds.12 mph66%30.00 "HgN/A
5:00 PM88 °FBroken clouds.7 mph62%30.01 "HgN/A
4:00 PM84 °FBroken clouds.7 mph70%30.01 "HgN/A
3:00 PM79 °FThunderstorms. Scattered clouds.3 mph84%30.04 "HgN/A
1:00 PM86 °FScattered clouds.12 mph62%30.07 "HgN/A
12:00 PM88 °FScattered showers. Scattered clouds.9 mph59%30.06 "HgN/A
10:00 AM86 °FScattered clouds.9 mph66%30.08 "HgN/A
9:00 AM82 °FScattered showers. Scattered clouds.7 mph74%30.06 "HgN/A
8:00 AM81 °FScattered clouds.3 mph84%30.06 "HgN/A
6:00 AM79 °FPassing clouds.No wind84%30.02 "HgN/A
5:00 AM79 °FPassing clouds.2 mph89%30.01 "HgN/A
4:00 AM79 °FPassing clouds.5 mph84%30.02 "HgN/A
3:00 AM79 °FPassing clouds.5 mph84%30.05 "HgN/A
12:00 AM77 °FPassing clouds.No wind83%30.08 "HgN/A
11:00 PM
Sep 1
77 °FPassing clouds.No wind94%30.09 "HgN/A
10:00 PM77 °FLight rain. Partly cloudy.5 mph79%30.10 "Hg6 mi
Weather by CustomWeather, © 2014

See weather overviewHow to use our weather pages